#timestamp,LO_Frequency,Hit,StdDev 
1589191215.7,286046999.1,N
1589191235.5,286046996.5,N
1589191255.4,286046997.8,N
1589191275.2,286046997.1,N
1589191295.1,286046997.4,N
1589191296.0,286046997.4,N
1589191315.8,286046997.5,N
1589191335.6,286046995.3,N
1589191355.5,286046995.7,N
1589191375.3,286046995.4,N
1589191395.1,286046995.7,N
1589191415.9,286046997.6,N
1589191435.7,286046995.7,N
1589191455.6,286046996.1,N
1589191475.4,286046995.0,N
1589191495.2,286046994.9,N
1589191515.1,286046993.5,N
1589191516.0,286046993.5,N
1589191535.8,286046993.9,N
1589191555.7,286046992.6,Y
1589191575.5,286046997.9,P
1589191595.3,286046999.4,P
1589191615.2,286046999.1,N
1589191635.0,286046999.1,N
1589191635.9,286046999.1,N
1589191655.7,286047000.9,N
1589191675.6,286046998.8,N
1589191695.4,286046998.9,N
1589191715.3,286046998.4,N
1589191735.1,286046997.2,Y
1589191755.8,286047001.1,P
1589191775.7,286046998.3,N
1589191795.5,286046998.6,N
1589191815.4,286047000.1,N
1589191835.2,286047000.4,N
1589191855.0,286046998.6,N
1589191855.9,286046998.6,N
1589191875.8,286046997.6,N
1589191895.6,286046998.6,N
1589191915.4,286046998.3,N
1589191935.3,286046997.3,N
1589191955.1,286046997.3,N
1589191975.9,286046996.6,Y
1589191995.7,286046999.3,P
1589192015.5,286046999.1,P
1589192035.4,286046997.3,P
1589192055.2,286046996.9,Y
1589192075.0,286046998.6,P
1589192076.0,286046998.6,P
1589192095.8,286046997.0,P
1589192115.6,286046998.3,N
1589192135.5,286046996.7,Y
1589192155.3,286047000.3,P
1589192175.1,286047000.4,N
1589192195.9,286047000.3,N
1589192215.7,286047002.2,N
1589192235.6,286047002.6,N
1589192255.4,286047002.7,N
1589192275.2,286046999.9,N
1589192295.1,286047000.0,N
1589192296.0,286047000.0,N
1589192315.8,286047001.2,N
1589192335.6,286047001.2,N
1589192355.5,286046998.6,N
1589192375.3,286046999.1,N
1589192395.2,286046999.0,N
1589192415.9,286046998.3,N
1589192435.7,286047000.9,N
1589192455.6,286047000.9,N
1589192475.4,286046998.1,N
1589192495.2,286047002.7,N
1589192515.1,286047000.6,N
1589192516.0,286047000.6,N
1589192535.8,286047000.8,N
1589192555.7,286047000.5,N
1589192575.5,286046998.5,N
1589192595.3,286046998.3,N
1589192615.2,286046998.9,N
1589192635.0,286046999.8,N
1589192635.9,286046999.8,N
1589192655.8,286047002.3,N
1589192675.6,286047002.2,N
1589192695.4,286047000.1,N
1589192715.3,286046999.9,N
1589192735.1,286047000.3,N
1589192755.8,286047000.1,N
1589192775.7,286047002.7,N
1589192795.5,286047002.7,N
1589192815.4,286047002.3,N
1589192835.2,286047001.6,N
1589192855.0,286046999.7,N
1589192855.9,286046999.7,N
1589192875.8,286047002.4,N
1589192895.6,286046999.0,N
1589192915.5,286046998.7,N
1589192935.3,286046997.0,N
1589192955.1,286046999.5,N
1589192975.9,286046999.4,N
1589192995.7,286047001.1,N
1589193015.5,286047000.0,N
1589193035.4,286047002.7,N
1589193055.2,286047000.5,N
1589193075.1,286047000.1,N
1589193076.0,286047000.1,N
1589193095.8,286047000.2,N
1589193115.6,286047000.0,N
1589193135.5,286047004.0,N
1589193155.3,286047004.1,N
1589193175.1,286047002.2,N
1589193195.9,286047003.7,N
1589193215.7,286047003.9,N
1589193235.6,286047002.4,N
1589193255.4,286047002.3,N
1589193275.2,286046999.9,N
1589193295.1,286046999.8,N
1589193296.0,286046999.8,N
1589193315.8,286047000.9,N
1589193335.7,286047000.3,N
1589193355.5,286047000.5,N
1589193375.3,286047000.4,N
1589193395.2,286047000.0,N
1589193415.0,286047000.9,N
1589193415.9,286047000.9,N
1589193435.7,286047002.0,N
1589193455.6,286047003.2,N
1589193475.4,286047004.0,N
1589193495.3,286047004.4,N
1589193515.1,286047002.2,N
1589193516.0,286047002.2,N
1589193535.8,286047001.3,N
1589193555.7,286047003.0,N
1589193575.5,286047003.3,N
1589193595.4,286047004.7,Y
1589193615.2,286047004.1,P
1589193635.0,286047004.2,P
1589193635.9,286047004.2,P
1589193655.8,286047003.8,Y
1589193675.6,286047001.6,P
1589193695.4,286047003.9,P
1589193715.3,286047005.6,P
1589193735.1,286047005.0,Y
1589193755.9,286047002.1,P
1589193775.7,286047000.9,N
1589193795.5,286047001.2,N
1589193815.4,286046998.8,N
1589193835.2,286046998.6,N
1589193855.1,286046997.2,N
1589193856.0,286046997.2,N
1589193875.8,286046996.1,N
1589193895.6,286046996.1,N
1589193915.5,286046995.6,N
1589193935.3,286046995.5,N
1589193955.1,286046998.0,N
1589193975.9,286046995.2,N
1589193995.7,286046996.2,N
1589194015.6,286046997.7,N
1589194035.4,286046998.9,N
1589194055.2,286047001.1,N
1589194075.1,286047001.1,N
1589194076.0,286047001.1,N
1589194095.8,286047000.7,N
1589194115.6,286047000.8,N
1589194135.5,286046998.8,N
1589194155.3,286046996.6,N
1589194175.2,286046997.7,N
1589194195.9,286046999.2,N
1589194215.7,286046996.6,N
1589194235.6,286046996.8,N
1589194255.4,286046997.1,N
1589194275.2,286046995.6,N
1589194295.1,286046995.2,N
1589194296.0,286046995.2,N
1589194315.8,286046996.3,N
1589194335.7,286046992.9,Y
1589194355.5,286046993.9,P
1589194375.3,286046994.0,P
1589194395.2,286046996.4,N
1589194415.0,286046993.9,Y
1589194415.9,286046993.9,P
1589194435.8,286046999.0,N
1589194455.6,286046997.8,N
1589194475.4,286046994.9,N
1589194495.3,286046999.1,N
1589194515.1,286046998.6,N
1589194535.9,286046998.8,N
1589194555.7,286047000.7,N
1589194575.5,286046998.7,N
1589194595.4,286046998.8,N
1589194615.2,286047001.2,N
1589194635.0,286047000.2,N
1589194635.9,286047000.2,N
1589194655.8,286047002.0,N
1589194675.6,286047001.6,N
1589194695.5,286046999.8,N
1589194715.3,286047000.6,N
1589194735.1,286047000.4,N
1589194755.9,286047000.2,N
1589194775.7,286046998.3,N
1589194795.5,286046999.4,N
